GW3957 Weather Reports


Display with metric or nautical units.
time (UTC)temp
F
wind
direction
speed
MPH
gust
MPH
rain 1hr
in
rain 24hr
in
rain mn
in
humidity
%
barometer
mb
20260905121051 57 214 0.0 1.0 0.00 0.00 0.00 99 1015.4
20260905120550 57 172 0.0 0.0 0.00 0.00 0.00 99 1015.3
20260905120046 57 233 0.0 2.0 0.00 0.00 0.00 99 1015.2
20260905115544 57 198 0.0 0.0 0.00 0.00 0.00 99 1015.2
20260905115039 57 206 0.0 0.0 0.00 0.00 0.00 99 1015.3
20260905114538 57 227 0.0 1.0 0.00 0.00 0.00 99 1015.0
20260905114038 57 214 0.0 0.0 0.00 0.00 0.00 99 1015.1
20260905113533 57 198 0.0 0.0 0.00 0.00 0.00 99 1014.8
20260905113028 57 224 0.0 0.0 0.00 0.00 0.00 99 1015.0
20260905112523 57 228 0.0 0.0 0.00 0.00 0.00 99 1015.1
20260905112019 57 241 0.0 0.0 0.00 0.00 0.00 99 1015.1
20260905111513 57 245 1.0 2.0 0.00 0.00 0.00 99 1014.7
20260905111013 57 207 0.0 0.0 0.00 0.00 0.00 99 1014.6
20260905110512 57 211 0.0 0.0 0.00 0.00 0.00 99 1014.7
20260905110007 57 227 0.0 1.0 0.00 0.00 0.00 99 1014.5
20260905105501 57 236 0.0 0.0 0.00 0.00 0.00 99 1014.5
20260905105001 57 239 0.0 1.0 0.00 0.00 0.00 99 1014.3
20260905104456 57 236 0.0 0.0 0.00 0.00 0.00 99 1014.2
20260905103951 57 216 0.0 0.0 0.00 0.00 0.00 99 1014.2
20260905103446 57 204 0.0 0.0 0.00 0.00 0.00 99 1013.9
20260905102942 57 224 0.0 0.0 0.00 0.00 0.00 99 1013.9
20260905102438 57 110 0.0 0.0 0.00 0.00 0.00 99 1013.8
20260905101933 57 237 0.0 0.0 0.00 0.00 0.00 99 1013.9
20260905101432 57 216 0.0 1.0 0.00 0.00 0.00 99 1013.8
20260905100927 57 265 1.0 2.0 0.00 0.00 0.00 99 1013.9
20260905100422 57 225 0.0 0.0 0.00 0.00 0.00 99 1013.8
20260905095921 57 215 0.0 0.0 0.00 0.00 0.00 99 1013.7
20260905095416 57 209 0.0 0.0 0.00 0.00 0.00 99 1013.7
20260905094911 57 215 0.0 0.0 0.00 0.00 0.00 99 1013.7
20260905094407 57 213 0.0 2.0 0.00 0.00 0.00 99 1013.8
20260905093905 57 216 0.0 1.0 0.00 0.00 0.00 99 1013.7
20260905093401 57 216 0.0 0.0 0.00 0.00 0.00 99 1013.9
20260905092856 57 218 0.0 0.0 0.00 0.00 0.00 99 1013.7
20260905092356 57 207 0.0 0.0 0.00 0.00 0.00 99 1013.9
20260905091851 57 247 0.0 0.0 0.00 0.00 0.00 99 1014.1
20260905091345 58 223 0.0 0.0 0.00 0.00 0.00 99 1014.2
20260905090844 58 229 0.0 0.0 0.00 0.00 0.00 99 1013.9
20260905090340 58 244 2.0 3.0 0.00 0.00 0.00 99 1014.2
20260905085839 58 205 0.0 1.0 0.00 0.00 0.00 99 1014.2
20260905085334 58 199 0.0 0.0 0.00 0.00 0.00 99 1014.2
20260905084830 58 219 0.0 0.0 0.00 0.00 0.00 99 1014.3
20260905084329 58 182 0.0 0.0 0.00 0.00 0.00 99 1014.4
20260905083829 58 229 0.0 0.0 0.00 0.00 0.00 99 1014.3
20260905083325 58 209 0.0 0.0 0.00 0.00 0.00 99 1014.4
20260905082820 58 218 0.0 0.0 0.00 0.00 0.00 99 1014.3
20260905082316 58 221 0.0 0.0 0.00 0.00 0.00 99 1014.4
20260905081811 58 226 0.0 0.0 0.00 0.00 0.00 99 1014.4
20260905081306 58 231 0.0 0.0 0.00 0.00 0.00 99 1014.3
20260905080805 58 209 0.0 0.0 0.00 0.00 0.00 99 1014.5
20260905080300 58 218 0.0 0.0 0.00 0.00 0.00 99 1014.5
20260905075758 58 213 0.0 0.0 0.00 0.00 0.00 99 1014.6
20260905075253 58 227 0.0 0.0 0.00 0.00 0.00 99 1014.7
20260905074752 57 225 0.0 0.0 0.00 0.00 0.00 99 1014.8
20260905074248 57 217 0.0 0.0 0.00 0.00 0.00 99 1014.6
20260905073743 57 166 1.0 2.0 0.00 0.00 0.00 99 1014.7
20260905073239 56 229 0.0 2.0 0.00 0.00 0.00 99 1014.6
20260905072738 56 206 0.0 0.0 0.00 0.00 0.00 99 1014.6
20260905072234 56 212 0.0 0.0 0.00 0.00 0.00 99 1014.6
20260905071730 55 211 0.0 0.0 0.00 0.00 0.00 99 1014.7
20260905071226 55 211 0.0 0.0 0.00 0.00 0.00 99 1014.8
20260905070720 56 211 0.0 0.0 0.00 0.00 0.00 99 1014.8
20260905070217 56 211 0.0 0.0 0.00 0.00 0.00 99 1014.9
20260905065715 56 211 0.0 0.0 0.00 0.00 0.00 99 1015.2
20260905065209 56 211 0.0 0.0 0.00 0.00 0.00 99 1015.0
20260905064705 56 211 0.0 0.0 0.00 0.00 0.00 99 1015.4
20260905064201 56 211 0.0 0.0 0.00 0.00 0.00 99 1015.1
20260905063659 56 211 0.0 0.0 0.00 0.00 0.00 99 1015.1
20260905063155 56 211 0.0 0.0 0.00 0.00 0.00 99 1015.4
20260905062651 56 211 0.0 0.0 0.00 0.00 0.00 99 1015.3
20260905062150 56 211 0.0 0.0 0.00 0.00 0.00 99 1015.1
20260905061644 56 210 0.0 0.0 0.00 0.00 0.00 99 1015.4
20260905061138 56 222 0.0 0.0 0.00 0.00 0.00 99 1015.4
20260905060634 57 221 0.0 0.0 0.00 0.00 0.00 99 1015.2
20260905060130 57 221 0.0 0.0 0.00 0.00 0.00 99 1015.5
20260905055628 57 221 0.0 0.0 0.00 0.00 0.00 99 1015.4
20260905055124 57 221 0.0 0.0 0.00 0.00 0.00 99 1015.6
20260905054620 57 221 0.0 0.0 0.00 0.00 0.00 99 1015.4
20260905054115 57 221 0.0 0.0 0.00 0.00 0.00 99 1015.7
20260905053615 57 221 0.0 0.0 0.00 0.00 0.00 99 1015.8
20260905053110 58 221 0.0 0.0 0.00 0.00 0.00 99 1015.7
20260905052609 58 221 0.0 0.0 0.00 0.00 0.00 99 1015.8
20260905052104 58 221 0.0 0.0 0.00 0.00 0.00 99 1015.8
20260905051559 59 220 0.0 0.0 0.00 0.00 0.00 98 1016.0
20260905051056 59 224 0.0 0.0 0.00 0.00 0.00 98 1016.1
20260905050551 59 222 0.0 0.0 0.00 0.00 0.00 98 1016.0
20260905050043 59 222 0.0 0.0 0.00 0.00 0.00 98 1016.2
20260905045537 60 222 0.0 0.0 0.00 0.00 0.00 97 1016.2
20260905045032 60 222 0.0 0.0 0.00 0.00 0.00 96 1016.2
20260905044526 60 222 0.0 0.0 0.00 0.00 0.00 96 1016.2
20260905044021 60 222 0.0 0.0 0.00 0.00 0.00 96 1016.2
20260905043520 61 222 0.0 0.0 0.00 0.00 0.00 96 1016.3
20260905043015 61 222 0.0 0.0 0.00 0.00 0.00 94 1016.1
20260905042508 61 231 0.0 0.0 0.00 0.00 0.00 93 1016.3
20260905041958 61 219 0.0 0.0 0.00 0.00 0.00 93 1016.2
20260905041453 61 224 0.0 0.0 0.00 0.00 0.00 93 1016.0
20260905040948 61 236 0.0 0.0 0.00 0.00 0.00 93 1016.1
20260905040447 61 232 0.0 0.0 0.00 0.00 0.00 93 1016.1
20260905035947 61 230 0.0 0.0 0.00 0.00 0.00 92 1016.2
20260905035442 61 215 0.0 0.0 0.00 0.00 0.00 92 1016.3
20260905034939 61 233 0.0 0.0 0.00 0.00 0.00 92 1016.2
20260905034434 61 217 0.0 0.0 0.00 0.00 0.00 92 1016.3
20260905033933 61 232 0.0 0.0 0.00 0.00 0.00 92 1016.3
20260905033428 61 221 0.0 0.0 0.00 0.00 0.00 92 1016.0
20260905032928 61 215 0.0 0.0 0.00 0.00 0.00 92 1016.1
20260905032424 62 228 0.0 0.0 0.00 0.00 0.00 92 1016.2
20260905031919 62 228 0.0 0.0 0.00 0.00 0.00 90 1016.1
20260905031415 62 217 0.0 1.0 0.00 0.00 0.00 90 1016.2
20260905030910 62 222 0.0 1.0 0.00 0.00 0.00 91 1016.3
20260905030405 62 227 0.0 1.0 0.00 0.00 0.00 92 1016.2
20260905025904 61 249 0.0 1.0 0.00 0.00 0.00 93 1016.2
20260905025400 61 225 0.0 0.0 0.00 0.00 0.00 93 1016.1
20260905024856 61 236 0.0 0.0 0.00 0.00 0.00 95 1016.2
20260905024350 61 217 0.0 2.0 0.00 0.00 0.00 96 1016.2
20260905023846 61 215 0.0 0.0 0.00 0.00 0.00 97 1016.3
20260905023342 61 221 0.0 0.0 0.00 0.00 0.00 97 1016.4
20260905022840 61 229 0.0 0.0 0.00 0.00 0.00 98 1016.3
20260905022335 61 229 0.0 0.0 0.00 0.00 0.00 98 1016.3
20260905021830 61 229 0.0 0.0 0.00 0.00 0.00 98 1016.4
20260905021325 61 229 0.0 0.0 0.00 0.00 0.00 98 1016.4
20260905020820 61 217 0.0 0.0 0.00 0.00 0.00 98 1016.5
20260905020315 61 217 0.0 0.0 0.00 0.00 0.00 99 1016.7
20260905015813 62 217 0.0 0.0 0.00 0.00 0.00 99 1016.6
20260905015308 62 217 0.0 0.0 0.00 0.00 0.00 99 1016.6
20260905014807 62 217 0.0 0.0 0.00 0.00 0.00 99 1016.8
20260905014303 62 217 0.0 0.0 0.00 0.00 0.00 99 1016.5
20260905013758 62 217 0.0 0.0 0.00 0.00 0.00 98 1016.8
20260905013254 62 217 0.0 0.0 0.00 0.00 0.00 97 1016.7
20260905012749 62 221 0.0 0.0 0.00 0.00 0.00 97 1016.8
20260905012245 61 223 0.0 0.0 0.00 0.00 0.00 97 1016.8
20260905011736 61 237 0.0 0.0 0.00 0.00 0.00 98 1017.0
20260905011226 61 220 0.0 0.0 0.00 0.00 0.00 99 1016.8
20260905010726 61 220 0.0 0.0 0.00 0.00 0.00 99 1016.8
20260905010220 61 220 0.0 0.0 0.00 0.00 0.00 99 1016.7
20260905005717 61 220 0.0 0.0 0.00 0.00 0.00 99 1016.7
20260905005213 61 219 0.0 0.0 0.00 0.00 0.00 99 1016.7
20260905004706 61 216 0.0 0.0 0.00 0.00 0.00 99 1016.7
20260905004202 61 216 0.0 0.0 0.00 0.00 0.00 99 1016.6
20260905003652 61 229 0.0 0.0 0.00 0.00 0.00 99 1016.7
20260905003148 61 229 0.0 0.0 0.00 0.00 0.00 99 1016.4
20260905002643 62 229 0.0 0.0 0.00 0.00 0.00 98 1016.7
20260905002142 62 229 0.0 0.0 0.00 0.00 0.00 98 1016.8
20260905001638 62 229 0.0 0.0 0.00 0.00 0.00 98 1016.6
20260905001137 62 229 0.0 0.0 0.00 0.00 0.00 98 1016.7
20260905000633 62 229 0.0 0.0 0.00 0.00 0.00 97 1016.5
20260905000129 62 232 0.0 0.0 0.00 0.00 0.00 97 1016.3
20260904235628 62 232 0.0 0.0 0.00 0.00 0.00 96 1016.4
20260904235128 62 232 0.0 0.0 0.00 0.00 0.00 96 1016.4
20260904234623 62 234 0.0 0.0 0.00 0.00 0.00 96 1016.3
20260904234119 62 235 0.0 0.0 0.00 0.00 0.00 96 1016.4
20260904233614 62 229 0.0 0.0 0.00 0.00 0.00 95 1016.6
20260904233110 63 229 0.0 0.0 0.00 0.00 0.00 95 1016.4
20260904232606 63 230 0.0 0.0 0.00 0.00 0.00 95 1016.2
20260904232057 63 230 0.0 0.0 0.00 0.00 0.00 94 1016.1
20260904231553 63 230 0.0 0.0 0.00 0.00 0.00 94 1016.4
20260904231047 64 230 0.0 0.0 0.00 0.00 0.00 94 1016.5
20260904230547 64 230 0.0 0.0 0.00 0.00 0.00 93 1016.6
20260904230042 64 230 0.0 0.0 0.00 0.00 0.00 93 1016.4
20260904225540 64 230 0.0 0.0 0.00 0.00 0.00 92 1016.6
20260904225040 65 224 0.0 0.0 0.00 0.00 0.00 91 1016.6
20260904224535 65 224 0.0 0.0 0.00 0.00 0.00 90 1016.8
20260904224035 65 224 0.0 0.0 0.00 0.00 0.00 89 1016.9
20260904223533 65 223 0.0 0.0 0.00 0.00 0.00 87 1016.7
20260904223030 66 222 0.0 0.0 0.00 0.00 0.00 87 1016.7
20260904222525 66 233 0.0 0.0 0.00 0.00 0.00 87 1016.7
20260904222020 66 234 0.0 0.0 0.00 0.00 0.00 87 1016.6
20260904221514 66 235 0.0 0.0 0.00 0.00 0.00 89 1016.7
20260904221009 67 219 0.0 0.0 0.00 0.00 0.00 89 1016.6
20260904220509 67 229 0.0 0.0 0.00 0.00 0.00 87 1016.5
20260904220005 67 227 0.0 0.0 0.00 0.00 0.00 85 1016.4
20260904215459 67 232 0.0 0.0 0.00 0.00 0.00 86 1016.4
20260904214955 67 231 0.0 0.0 0.00 0.00 0.00 84 1016.4
20260904214450 68 213 0.0 1.0 0.00 0.00 0.00 82 1016.4
20260904213945 68 226 0.0 1.0 0.00 0.00 0.00 80 1016.4
20260904213444 68 238 0.0 0.0 0.00 0.00 0.00 80 1016.3
20260904212940 68 236 0.0 2.0 0.00 0.00 0.00 80 1016.5
20260904212440 68 217 0.0 2.0 0.00 0.00 0.00 80 1016.3
20260904211935 69 231 0.0 3.0 0.00 0.00 0.00 80 1016.4
20260904211429 69 208 0.0 0.0 0.00 0.00 0.00 80 1016.5
20260904210925 69 245 0.0 1.0 0.00 0.00 0.00 77 1016.7
20260904210424 69 267 2.0 2.0 0.00 0.00 0.00 77 1016.5
20260904205920 69 229 0.0 2.0 0.00 0.00 0.00 81 1016.5
20260904205415 69 243 2.0 3.0 0.00 0.00 0.00 81 1016.4
20260904204912 70 250 0.0 2.0 0.00 0.00 0.00 79 1016.4
20260904204408 70 180 2.0 2.0 0.00 0.00 0.00 79 1016.7
20260904203904 69 184 0.0 1.0 0.00 0.00 0.00 78 1016.6
20260904203400 69 205 0.0 1.0 0.00 0.00 0.00 80 1016.7
20260904202856 70 229 0.0 2.0 0.00 0.00 0.00 80 1016.7
20260904202351 70 240 0.0 0.0 0.00 0.00 0.00 79 1016.9
20260904201847 70 234 1.0 2.0 0.00 0.00 0.00 79 1016.9
20260904201347 70 234 0.0 1.0 0.00 0.00 0.00 82 1017.0
20260904200843 70 255 2.0 2.0 0.00 0.00 0.00 79 1016.9
20260904200341 69 217 0.0 0.0 0.00 0.00 0.00 83 1016.9
20260904195836 69 231 0.0 0.0 0.00 0.00 0.00 83 1017.0
20260904195334 69 218 0.0 0.0 0.00 0.00 0.00 83 1017.2
20260904194829 69 236 0.0 0.0 0.00 0.00 0.00 83 1017.0
20260904194329 69 235 1.0 2.0 0.00 0.00 0.00 80 1017.2
20260904193824 70 233 0.0 0.0 0.00 0.00 0.00 79 1017.1
20260904193320 70 189 0.0 1.0 0.00 0.00 0.00 78 1017.1
20260904192815 71 216 0.0 1.0 0.00 0.00 0.00 77 1017.2
20260904192310 72 180 0.0 4.0 0.00 0.00 0.00 75 1017.0
20260904191807 73 247 1.0 2.0 0.00 0.00 0.00 76 1017.1
20260904191303 72 237 1.0 3.0 0.00 0.00 0.00 73 1017.1
20260904190759 72 290 1.0 2.0 0.00 0.00 0.00 74 1017.2
20260904190255 72 274 2.0 4.0 0.00 0.00 0.00 71 1017.1
20260904185751 72 223 1.0 2.0 0.00 0.00 0.00 74 1017.1
20260904185246 72 278 1.0 3.0 0.00 0.00 0.00 73 1016.8
20260904184744 72 145 5.0 7.0 0.00 0.00 0.00 70 1017.0
20260904184241 72 207 1.0 2.0 0.00 0.00 0.00 72 1017.0
20260904183736 72 275 4.0 6.0 0.00 0.00 0.00 70 1016.9
20260904183231 72 244 1.0 2.0 0.00 0.00 0.00 74 1017.0
20260904182726 71 221 0.0 2.0 0.00 0.00 0.00 74 1017.2
20260904182221 72 211 2.0 3.0 0.00 0.00 0.00 71 1017.0
20260904181717 72 202 1.0 4.0 0.00 0.00 0.00 75 1017.3
20260904181216 72 204 1.0 2.0 0.00 0.00 0.00 75 1017.4
20260904180712 73 239 1.0 2.0 0.00 0.00 0.00 71 1017.4
20260904180207 73 32 0.0 3.0 0.00 0.00 0.00 74 1017.3
20260904175706 73 148 1.0 2.0 0.00 0.00 0.00 72 1017.3
20260904175205 73 188 0.0 1.0 0.00 0.00 0.00 73 1017.3
20260904174705 72 225 1.0 3.0 0.00 0.00 0.00 72 1017.5
20260904174201 73 152 2.0 10.0 0.00 0.00 0.00 71 1017.3
20260904173656 72 272 1.0 2.0 0.00 0.00 0.00 71 1017.3
20260904173151 71 264 1.0 6.0 0.00 0.00 0.00 73 1017.5
20260904172648 72 4 2.0 3.0 0.00 0.00 0.00 74 1017.5
20260904172147 72 157 1.0 2.0 0.00 0.00 0.00 74 1017.2
20260904171643 73 254 1.0 1.0 0.00 0.00 0.00 72 1017.2
20260904171137 73 204 0.0 3.0 0.00 0.00 0.00 74 1017.3
20260904170633 73 236 2.0 3.0 0.00 0.00 0.00 73 1017.1
20260904170128 73 238 0.0 2.0 0.00 0.00 0.00 74 1017.0
20260904165627 73 224 1.0 3.0 0.00 0.00 0.00 76 1017.1
20260904165121 72 64 1.0 3.0 0.00 0.00 0.00 76 1017.2
20260904164616 72 153 1.0 3.0 0.00 0.00 0.00 77 1017.2
20260904164106 72 270 2.0 4.0 0.00 0.00 0.00 76 1017.1
20260904163601 72 244 0.0 2.0 0.00 0.00 0.00 76 1017.2
20260904163056 72 241 1.0 3.0 0.00 0.00 0.00 76 1017.0
20260904162555 73 287 2.0 7.0 0.00 0.00 0.00 76 1017.1
20260904162052 72 111 0.0 1.0 0.00 0.00 0.00 79 1017.0
20260904161546 71 276 0.0 3.0 0.00 0.00 0.00 77 1017.1
20260904161042 72 217 0.0 2.0 0.00 0.00 0.00 79 1017.1
20260904160537 72 186 1.0 3.0 0.00 0.00 0.00 81 1017.2
20260904160033 71 220 0.0 7.0 0.00 0.00 0.00 81 1017.1
20260904155532 72 232 0.0 3.0 0.00 0.00 0.00 79 1017.0
20260904155026 73 176 2.0 3.0 0.00 0.00 0.00 76 1017.2
20260904154520 73 254 3.0 10.0 0.00 0.00 0.00 73 1017.2
20260904154015 72 89 3.0 3.0 0.00 0.00 0.00 76 1017.2
20260904153515 72 32 4.0 8.0 0.00 0.00 0.00 75 1017.3
20260904153012 73 231 0.0 2.0 0.00 0.00 0.00 78 1017.0
20260904152507 71 221 0.0 2.0 0.00 0.00 0.00 78 1017.0
20260904152002 72 67 1.0 1.0 0.00 0.00 0.00 78 1017.1
20260904151456 72 250 2.0 3.0 0.00 0.00 0.00 79 1017.1
20260904150951 71 259 2.0 3.0 0.00 0.00 0.00 79 1017.2
20260904150446 71 194 0.0 2.0 0.00 0.00 0.00 79 1017.0
20260904145944 72 261 1.0 2.0 0.00 0.00 0.00 77 1017.0
20260904145440 71 189 1.0 3.0 0.00 0.00 0.00 76 1017.0
20260904144935 71 204 1.0 6.0 0.00 0.00 0.00 76 1016.9
20260904144431 72 214 0.0 3.0 0.00 0.00 0.00 77 1017.0
20260904143926 71 233 0.0 0.0 0.00 0.00 0.00 81 1017.2
20260904143423 70 186 1.0 2.0 0.00 0.00 0.00 78 1017.0
20260904142919 71 227 0.0 4.0 0.00 0.00 0.00 81 1017.2
20260904142415 71 208 3.0 3.0 0.00 0.00 0.00 78 1017.1
20260904141914 71 230 0.0 2.0 0.00 0.00 0.00 78 1017.0
20260904141410 70 191 0.0 4.0 0.00 0.00 0.00 81 1016.9
20260904140906 70 209 0.0 2.0 0.00 0.00 0.00 83 1016.6
20260904140401 69 222 0.0 9.0 0.00 0.00 0.00 82 1016.6
20260904135900 69 88 3.0 4.0 0.00 0.00 0.00 81 1016.6
20260904135355 69 227 1.0 3.0 0.00 0.00 0.00 86 1016.7
20260904134851 69 131 2.0 4.0 0.00 0.00 0.00 82 1016.6
20260904134350 69 52 2.0 2.0 0.00 0.00 0.00 83 1016.5
20260904133845 69 256 0.0 2.0 0.00 0.00 0.00 88 1016.4
20260904133340 69 199 1.0 4.0 0.00 0.00 0.00 87 1016.5
20260904132841 69 215 0.0 1.0 0.00 0.00 0.00 90 1016.4
20260904132335 68 177 0.0 2.0 0.00 0.00 0.00 88 1016.5
20260904131830 69 260 0.0 2.0 0.00 0.00 0.00 89 1016.8
20260904131326 68 177 0.0 1.0 0.00 0.00 0.00 89 1016.5
20260904130825 69 286 0.0 2.0 0.00 0.00 0.00 89 1016.7
20260904130325 68 263 1.0 1.0 0.00 0.00 0.00 90 1016.6
20260904125820 68 213 0.0 2.0 0.00 0.00 0.00 94 1016.7
20260904125316 68 196 1.0 1.0 0.00 0.00 0.00 93 1016.8
20260904124815 67 325 2.0 2.0 0.00 0.00 0.00 91 1016.7
20260904124312 68 241 1.0 1.0 0.00 0.00 0.00 94 1016.6
20260904123807 67 154 1.0 2.0 0.00 0.00 0.00 94 1016.6
20260904123257 67 295 4.0 6.0 0.00 0.00 0.00 95 1016.6
20260904122752 66 210 0.0 1.0 0.00 0.00 0.00 96 1016.5
20260904122251 66 86 1.0 2.0 0.00 0.00 0.00 99 1016.5
20260904121746 65 187 0.0 1.0 0.00 0.00 0.00 99 1016.5
20260904121242 65 211 0.0 0.0 0.00 0.00 0.00 99 1016.8